Time,TemperatureF,DewpointF,PressureIn,WindDirection,WindDirectionDegrees,WindSpeedMPH,WindSpeedGustMPH,Humidity,HourlyPrecipIn,Conditions,Clouds,dailyrainin,SoftwareType,DateUTC
2013-12-24 00:14:00,28.6,28.1,30.48,SSE,157,0.0,-999.0,98,-99.99,,,0.00,Acu-Link.com,2013-12-24 06:14:00,
2013-12-24 00:30:00,28.2,27.7,30.49,South,180,2.7,-999.0,98,-99.99,,,0.00,Acu-Link.com,2013-12-24 06:30:00,
2013-12-24 00:45:00,28.4,27.9,30.49,SW,225,0.0,-999.0,98,-99.99,,,0.00,Acu-Link.com,2013-12-24 06:45:00,
2013-12-24 01:00:00,27.9,27.4,30.49,South,180,0.0,-999.0,98,-99.99,,,0.00,Acu-Link.com,2013-12-24 07:00:00,
2013-12-24 01:15:00,27.9,27.4,30.48,SSE,157,0.0,-999.0,98,-99.99,,,0.00,Acu-Link.com,2013-12-24 07:15:00,
2013-12-24 01:30:00,27.7,27.2,30.46,ESE,112,0.0,-999.0,98,-99.99,,,0.00,Acu-Link.com,2013-12-24 07:30:00,
2013-12-24 01:46:00,27.7,27.2,30.46,SSW,202,0.0,-999.0,98,-99.99,,,0.00,Acu-Link.com,2013-12-24 07:46:00,
2013-12-24 02:01:00,27.3,26.8,30.45,SSW,202,0.0,-999.0,98,-99.99,,,0.00,Acu-Link.com,2013-12-24 08:01:00,
2013-12-24 02:16:00,27.5,27.0,30.45,South,180,0.0,-999.0,98,-99.99,,,0.00,Acu-Link.com,2013-12-24 08:16:00,
2013-12-24 02:31:00,27.5,27.0,30.45,SSE,157,0.0,-999.0,98,-99.99,,,0.00,Acu-Link.com,2013-12-24 08:31:00,
2013-12-24 02:46:00,27.3,26.8,30.45,South,180,0.0,-999.0,98,-99.99,,,0.00,Acu-Link.com,2013-12-24 08:46:00,
2013-12-24 03:01:00,27.3,26.8,30.44,ESE,112,0.0,-999.0,98,-99.99,,,0.00,Acu-Link.com,2013-12-24 09:01:00,
2013-12-24 03:16:00,27.3,26.8,30.43,South,180,0.0,-999.0,98,-99.99,,,0.00,Acu-Link.com,2013-12-24 09:16:00,
2013-12-24 03:32:00,27.1,26.7,30.43,SSE,157,0.0,-999.0,98,-99.99,,,0.00,Acu-Link.com,2013-12-24 09:32:00,
2013-12-24 03:47:00,26.8,26.3,30.43,SSE,157,6.7,-999.0,98,-99.99,,,0.00,Acu-Link.com,2013-12-24 09:47:00,
2013-12-24 04:02:00,26.6,26.1,30.43,SSW,202,0.0,-999.0,98,-99.99,,,0.00,Acu-Link.com,2013-12-24 10:02:00,
2013-12-24 04:17:00,26.2,25.8,30.42,SSW,202,5.1,-999.0,98,-99.99,,,0.00,Acu-Link.com,2013-12-24 10:17:00,
2013-12-24 04:32:00,25.7,25.2,30.42,South,180,6.7,-999.0,98,-99.99,,,0.00,Acu-Link.com,2013-12-24 10:32:00,
2013-12-24 04:47:00,25.0,24.5,30.42,SSE,157,5.1,-999.0,98,-99.99,,,0.00,Acu-Link.com,2013-12-24 10:47:00,
2013-12-24 05:02:00,25.0,24.5,30.41,South,180,6.3,-999.0,98,-99.99,,,0.00,Acu-Link.com,2013-12-24 11:02:00,
2013-12-24 05:17:00,25.0,24.5,30.40,South,180,6.7,-999.0,98,-99.99,,,0.00,Acu-Link.com,2013-12-24 11:17:00,
2013-12-24 05:32:00,24.8,24.3,30.39,SSW,202,4.7,-999.0,98,-99.99,,,0.00,Acu-Link.com,2013-12-24 11:32:00,
2013-12-24 05:47:00,24.8,24.3,30.54,South,180,3.8,-999.0,98,-99.99,,,0.00,Acu-Link.com,2013-12-24 11:47:00,
2013-12-24 06:02:00,24.1,23.6,30.39,South,180,5.8,-999.0,98,-99.99,,,0.00,Acu-Link.com,2013-12-24 12:02:00,
2013-12-24 06:18:00,24.3,23.8,30.38,South,180,0.0,-999.0,98,-99.99,,,0.00,Acu-Link.com,2013-12-24 12:18:00,
2013-12-24 06:33:00,23.9,23.4,30.39,SSW,202,7.8,-999.0,98,-99.99,,,0.00,Acu-Link.com,2013-12-24 12:33:00,
2013-12-24 06:48:00,23.9,23.4,30.38,SSW,202,6.7,-999.0,98,-99.99,,,0.00,Acu-Link.com,2013-12-24 12:48:00,
2013-12-24 07:03:00,23.9,23.4,30.38,South,180,6.3,-999.0,98,-99.99,,,0.00,Acu-Link.com,2013-12-24 13:03:00,
2013-12-24 07:19:00,24.4,24.0,30.37,South,180,0.0,-999.0,98,-99.99,,,0.00,Acu-Link.com,2013-12-24 13:19:00,
2013-12-24 07:34:00,24.3,23.8,30.37,SSE,157,7.8,-999.0,98,-99.99,,,0.00,Acu-Link.com,2013-12-24 13:34:00,
2013-12-24 07:49:00,24.6,24.1,30.37,SSE,157,5.8,-999.0,98,-99.99,,,0.00,Acu-Link.com,2013-12-24 13:49:00,
2013-12-24 08:04:00,24.8,24.3,30.37,SSW,202,4.7,-999.0,98,-99.99,,,0.00,Acu-Link.com,2013-12-24 14:04:00,
2013-12-24 08:19:00,25.0,24.5,30.37,SSE,157,6.3,-999.0,98,-99.99,,,0.00,Acu-Link.com,2013-12-24 14:19:00,
2013-12-24 08:35:00,24.6,24.1,30.37,SSW,202,8.3,-999.0,98,-99.99,,,0.00,Acu-Link.com,2013-12-24 14:35:00,
2013-12-24 08:50:00,24.3,23.8,30.37,South,180,7.4,-999.0,98,-99.99,,,0.01,Acu-Link.com,2013-12-24 14:50:00,
2013-12-24 09:05:00,24.8,24.3,30.36,SSE,157,4.3,-999.0,98,-99.99,,,0.02,Acu-Link.com,2013-12-24 15:05:00,
2013-12-24 09:20:00,25.2,24.7,30.35,SE,135,4.7,-999.0,98,-99.99,,,0.02,Acu-Link.com,2013-12-24 15:20:00,
2013-12-24 09:35:00,25.3,24.9,30.36,SSE,157,6.3,-999.0,98,-99.99,,,0.02,Acu-Link.com,2013-12-24 15:35:00,
2013-12-24 09:51:00,25.2,24.7,30.36,South,180,8.3,-999.0,98,-99.99,,,0.02,Acu-Link.com,2013-12-24 15:51:00,
2013-12-24 10:06:00,25.2,24.7,30.36,South,180,6.7,-999.0,98,-99.99,,,0.02,Acu-Link.com,2013-12-24 16:06:00,
2013-12-24 10:21:00,25.3,24.9,30.36,SSE,157,7.8,-999.0,98,-99.99,,,0.02,Acu-Link.com,2013-12-24 16:21:00,
2013-12-24 10:36:00,25.5,25.0,30.35,South,180,6.7,-999.0,98,-99.99,,,0.02,Acu-Link.com,2013-12-24 16:36:00,
2013-12-24 10:51:00,26.2,25.8,30.34,SSE,157,5.1,-999.0,98,-99.99,,,0.02,Acu-Link.com,2013-12-24 16:51:00,
2013-12-24 11:07:00,26.4,25.9,30.32,South,180,8.3,-999.0,98,-99.99,,,0.02,Acu-Link.com,2013-12-24 17:07:00,
2013-12-24 11:22:00,27.1,26.7,30.31,SSE,157,7.8,-999.0,98,-99.99,,,0.02,Acu-Link.com,2013-12-24 17:22:00,
2013-12-24 11:37:00,27.7,27.2,30.31,South,180,7.4,-999.0,98,-99.99,,,0.02,Acu-Link.com,2013-12-24 17:37:00,
2013-12-24 11:52:00,28.0,27.5,30.30,South,180,9.8,-999.0,98,-99.99,,,0.02,Acu-Link.com,2013-12-24 17:52:00,
2013-12-24 12:07:00,28.6,28.1,30.27,SSE,157,8.9,-999.0,98,-99.99,,,0.02,Acu-Link.com,2013-12-24 18:07:00,
2013-12-24 12:23:00,29.3,28.8,30.25,SSW,202,7.4,-999.0,98,-99.99,,,0.02,Acu-Link.com,2013-12-24 18:23:00,
2013-12-24 12:38:00,29.7,29.2,30.25,South,180,7.4,-999.0,98,-99.99,,,0.02,Acu-Link.com,2013-12-24 18:38:00,
2013-12-24 12:53:00,30.0,29.5,30.22,SSW,202,8.9,-999.0,98,-99.99,,,0.02,Acu-Link.com,2013-12-24 18:53:00,
2013-12-24 13:08:00,30.6,30.1,30.21,SSE,157,7.8,-999.0,98,-99.99,,,0.02,Acu-Link.com,2013-12-24 19:08:00,
2013-12-24 13:23:00,31.1,30.6,30.20,South,180,9.4,-999.0,98,-99.99,,,0.02,Acu-Link.com,2013-12-24 19:23:00,
2013-12-24 13:39:00,31.5,31.0,30.18,South,180,10.3,-999.0,98,-99.99,,,0.02,Acu-Link.com,2013-12-24 19:39:00,
2013-12-24 13:54:00,32.5,32.0,30.16,South,180,7.4,-999.0,98,-99.99,,,0.02,Acu-Link.com,2013-12-24 19:54:00,
2013-12-24 14:09:00,33.6,33.1,30.15,South,180,8.3,-999.0,98,-99.99,,,0.02,Acu-Link.com,2013-12-24 20:09:00,
2013-12-24 14:24:00,35.2,34.7,30.15,SSE,157,4.7,-999.0,98,-99.99,,,0.02,Acu-Link.com,2013-12-24 20:24:00,
2013-12-24 14:39:00,38.3,37.8,30.13,SSE,157,8.9,-999.0,98,-99.99,,,0.02,Acu-Link.com,2013-12-24 20:39:00,
2013-12-24 14:55:00,40.5,38.9,30.12,SSE,157,13.4,-999.0,94,-99.99,,,0.07,Acu-Link.com,2013-12-24 20:55:00,
2013-12-24 15:10:00,42.6,39.6,30.11,South,180,9.4,-999.0,89,-99.99,,,0.07,Acu-Link.com,2013-12-24 21:10:00,
2013-12-24 15:25:00,43.7,40.4,30.11,South,180,9.4,-999.0,88,-99.99,,,0.17,Acu-Link.com,2013-12-24 21:25:00,
2013-12-24 15:40:00,45.1,41.2,30.09,SSE,157,9.4,-999.0,86,-99.99,,,0.19,Acu-Link.com,2013-12-24 21:40:00,
2013-12-24 15:55:00,45.9,41.3,30.08,SSE,157,9.4,-999.0,84,-99.99,,,0.19,Acu-Link.com,2013-12-24 21:55:00,
2013-12-24 16:11:00,46.9,42.4,30.08,South,180,7.8,-999.0,84,-99.99,,,0.21,Acu-Link.com,2013-12-24 22:11:00,
2013-12-24 16:26:00,47.5,42.3,30.08,SSE,157,6.7,-999.0,82,-99.99,,,0.21,Acu-Link.com,2013-12-24 22:26:00,
2013-12-24 16:41:00,47.7,42.8,30.07,SE,135,5.8,-999.0,83,-99.99,,,0.21,Acu-Link.com,2013-12-24 22:41:00,
2013-12-24 16:56:00,47.5,42.9,30.06,ESE,112,4.3,-999.0,84,-99.99,,,0.21,Acu-Link.com,2013-12-24 22:56:00,
2013-12-24 17:12:00,47.5,43.2,30.06,ESE,112,2.2,-999.0,85,-99.99,,,0.21,Acu-Link.com,2013-12-24 23:12:00,
2013-12-24 17:27:00,46.2,42.6,30.05,SSE,157,0.0,-999.0,87,-99.99,,,0.21,Acu-Link.com,2013-12-24 23:27:00,
2013-12-24 17:42:00,45.1,42.1,30.05,SSE,157,0.0,-999.0,89,-99.99,,,0.21,Acu-Link.com,2013-12-24 23:42:00,
2013-12-24 17:57:00,44.2,41.8,30.05,ESE,112,4.3,-999.0,91,-99.99,,,0.21,Acu-Link.com,2013-12-24 23:57:00,
2013-12-24 18:12:00,43.7,41.5,30.05,ESE,112,4.3,-999.0,92,-99.99,,,0.21,Acu-Link.com,2013-12-25 00:12:00,
2013-12-24 18:28:00,41.2,39.9,30.05,East,90,5.8,-999.0,95,-99.99,,,0.21,Acu-Link.com,2013-12-25 00:28:00,
2013-12-24 18:43:00,42.4,40.8,30.05,ESE,112,4.7,-999.0,94,-99.99,,,0.21,Acu-Link.com,2013-12-25 00:43:00,
2013-12-24 18:58:00,42.1,40.5,30.06,East,90,5.1,-999.0,94,-99.99,,,0.21,Acu-Link.com,2013-12-25 00:58:00,
2013-12-24 19:13:00,42.1,40.5,30.06,East,90,6.7,-999.0,94,-99.99,,,0.21,Acu-Link.com,2013-12-25 01:13:00,
2013-12-24 19:28:00,42.1,40.2,30.06,SE,135,8.3,-999.0,93,-99.99,,,0.21,Acu-Link.com,2013-12-25 01:28:00,
2013-12-24 19:44:00,41.2,39.6,30.07,SE,135,7.4,-999.0,94,-99.99,,,0.21,Acu-Link.com,2013-12-25 01:44:00,
2013-12-24 19:59:00,40.1,38.8,30.06,SE,135,7.8,-999.0,95,-99.99,,,0.21,Acu-Link.com,2013-12-25 01:59:00,
2013-12-24 20:14:00,39.6,38.5,30.06,ESE,112,7.8,-999.0,96,-99.99,,,0.21,Acu-Link.com,2013-12-25 02:14:00,
2013-12-24 20:29:00,39.4,38.3,30.07,SE,135,5.8,-999.0,96,-99.99,,,0.21,Acu-Link.com,2013-12-25 02:29:00,
2013-12-24 20:45:00,39.0,38.0,30.07,ESE,112,5.1,-999.0,96,-99.99,,,0.21,Acu-Link.com,2013-12-25 02:45:00,
2013-12-24 21:00:00,39.7,38.2,30.08,SE,135,7.8,-999.0,94,-99.99,,,0.21,Acu-Link.com,2013-12-25 03:00:00,
2013-12-24 21:15:00,40.6,38.2,30.07,ESE,112,9.4,-999.0,91,-99.99,,,0.21,Acu-Link.com,2013-12-25 03:15:00,
2013-12-24 21:30:00,40.8,38.1,30.08,SSE,157,8.3,-999.0,90,-99.99,,,0.21,Acu-Link.com,2013-12-25 03:30:00,
2013-12-24 21:45:00,40.6,37.9,30.09,SE,135,6.3,-999.0,90,-99.99,,,0.21,Acu-Link.com,2013-12-25 03:45:00,
2013-12-24 22:00:00,40.1,37.4,30.09,SE,135,7.8,-999.0,90,-99.99,,,0.21,Acu-Link.com,2013-12-25 04:00:00,
2013-12-24 22:16:00,39.0,36.9,30.09,SE,135,7.4,-999.0,92,-99.99,,,0.21,Acu-Link.com,2013-12-25 04:16:00,
2013-12-24 22:31:00,39.4,37.3,30.08,SE,135,7.4,-999.0,92,-99.99,,,0.21,Acu-Link.com,2013-12-25 04:31:00,
2013-12-24 22:46:00,39.2,36.8,30.10,SE,135,6.3,-999.0,91,-99.99,,,0.21,Acu-Link.com,2013-12-25 04:46:00,
2013-12-24 23:01:00,39.2,37.1,30.09,SE,135,6.7,-999.0,92,-99.99,,,0.21,Acu-Link.com,2013-12-25 05:01:00,
2013-12-24 23:16:00,37.9,36.1,30.10,ESE,112,6.3,-999.0,93,-99.99,,,0.21,Acu-Link.com,2013-12-25 05:16:00,
2013-12-24 23:31:00,36.9,35.6,30.12,ESE,112,5.8,-999.0,95,-99.99,,,0.21,Acu-Link.com,2013-12-25 05:31:00,
2013-12-24 23:47:00,35.2,34.7,30.12,NNE,22,11.9,-999.0,98,-99.99,,,0.21,Acu-Link.com,2013-12-25 05:47:00,